Flag for Tajikistan Weather past 2 weeks in Dushanbe, Tajikistan

Now
82 °F

Passing clouds.


Feels Like: 80 °F
Forecast: 55 / 84 °F
Wind: 6 mph from West

Location: Dushanbe Airport

Current Time: May 27, 2015 at 1:07:35 PM

Latest Report: May 27, 2015 at 12:30 PM


Visibility: N/A

Pressure: 29.95 "Hg

Humidity: 25%

Dew point: 43 °F

Location of DushanbeLocation

Historic Weather in Dushanbe — Graph

°F

Dushanbe temperature yesterday

Maximum temperature yesterday: 79 °F (at 2:00 PM)
Minimum temperature yesterday: 48 °F (at 4:00 AM)
Average temperature yesterday: 66 °F

Past Weeks' High & Low Weather Summary

 TemperatureHumidityPressure
High90 °F (May 15, 3:00 PM)100% (May 13, 2:30 AM)30.21 "Hg (May 13, 2:30 AM)
Low48 °F (May 26, 4:00 AM)15% (May 20, 2:00 PM)29.80 "Hg (May 16, 3:30 AM)
Average67 °F59%30.00 "Hg
* Reported May 12 12:00 Noon — May 27 12:00 Noon, Dushanbe, Weather by CustomWeather, © 2015

Note: Actual official high and low records may vary slightly from our data, if they occured in-between our weather recording intervals... More about our weather records

Advertising

Dushanbe weather history for previous 24 hours

 ConditionsComfort  
Time TempWeatherWind HumidityBarometerVisibility
12:00 PM
Wed, May 27
82 °FClear.3 mph21%29.98 "HgN/A
11:30 AM82 °FClear.3 mph25%29.98 "HgN/A
11:00 AM81 °FClear.3 mph28%29.98 "HgN/A
10:30 AM81 °FClear.6 mph26%29.98 "HgN/A
10:00 AM77 °FClear.6 mph36%29.98 "HgN/A
9:30 AM77 °FClear.3 mph34%29.98 "HgN/A
8:30 AM72 °FClear.3 mph41%29.98 "HgN/A
8:00 AM68 °FClear.1 mph56%29.98 "HgN/A
7:30 AM66 °FClear.6 mph52%29.98 "HgN/A
7:00 AM64 °FClear.1 mph68%29.98 "HgN/A
6:30 AM63 °FClear.1 mph64%29.98 "HgN/A
6:00 AM55 °FClear.1 mph82%29.98 "HgN/A
5:30 AM54 °FClear.No wind82%29.95 "HgN/A
5:00 AM55 °FClear.1 mph77%29.95 "HgN/A
4:30 AM55 °FClear.3 mph77%29.95 "HgN/A
4:00 AM55 °FClear.1 mph77%29.95 "HgN/A
3:30 AM55 °FClear.No wind82%29.95 "HgN/A
3:00 AM57 °FClear.1 mph72%29.95 "HgN/A
2:30 AM57 °FClear.3 mph72%29.95 "HgN/A
1:30 AM59 °FClear.No wind72%29.98 "HgN/A
1:00 AM59 °FClear.1 mph72%29.98 "HgN/A
12:30 AM59 °FClear.3 mph72%30.01 "HgN/A
12:00 AM59 °FClear.1 mph77%30.01 "HgN/A
11:30 PM
Tue, May 26
61 °FClear.1 mph68%30.01 "HgN/A
11:00 PM63 °FPassing clouds.1 mph64%30.01 "HgN/A
10:30 PM63 °FPassing clouds.No wind64%30.01 "HgN/A
10:00 PM64 °FPassing clouds.1 mph56%30.01 "HgN/A
9:30 PM64 °FPassing clouds.3 mph60%30.01 "HgN/A
9:00 PM66 °FPassing clouds.3 mph56%30.01 "HgN/A
8:30 PM68 °FPassing clouds.3 mph53%29.98 "HgN/A
8:00 PM70 °FPassing clouds.6 mph50%29.98 "HgN/A
7:30 PM72 °FPassing clouds.3 mph44%29.98 "HgN/A
7:00 PM73 °FPassing clouds.6 mph41%29.98 "HgN/A
6:30 PM77 °FPassing clouds.3 mph39%29.98 "HgN/A
6:00 PM77 °FPassing clouds.1 mph36%29.98 "HgN/A
5:30 PM79 °FPassing clouds.3 mph28%29.98 "HgN/A
5:00 PM79 °FPassing clouds.3 mph28%29.98 "HgN/A
4:30 PM79 °FPassing clouds.3 mph30%29.98 "HgN/A
4:00 PM79 °FPassing clouds.6 mph32%30.01 "HgN/A
3:30 PM79 °FPassing clouds.3 mph32%30.01 "HgN/A
3:00 PM79 °FPassing clouds.1 mph30%30.01 "HgN/A
2:30 PM79 °FPassing clouds.6 mph30%30.01 "HgN/A
2:00 PM79 °FPassing clouds.6 mph32%30.01 "HgN/A
1:30 PM77 °FPassing clouds.6 mph32%30.04 "HgN/A
1:00 PM77 °FPassing clouds.6 mph32%30.04 "HgN/A
Weather by CustomWeather, © 2015

See weather overviewHow to use our weather pages